SCP
0 0 0 0 0 0 0 0 0 0 0 0 0 0 0 0 0 0 0 1 1 0 0 0 0 0 0 0 0 0 0 0 0 0 0 0 0 0 0 0 0 0 0
0 0 0 0 0 0 0 0 0 0 0 0 0 0 0 0 0 0 0 0 0 0 0 0 0 0 0 0 0 0 0 0 0 0 0 0 0 0 0 0 0 0 0
0 0 0 0 0 0 0 0 0 0 0 0 0 0 0 0 0 0 0 0 0 0 0 0 0 0 0 0 0 0 0 0 0 0 0 0 0 0 0 0 0 0 0
0 0 0 0 0 0 0 0 0 0 0 0 0 0 0 0 0 0 0 0 0 0 0 0 0 0 0 0 0 0 0 0 0 0 0 0 0 0 0 0 0 0 0
0 0 0 0 0 0 0 0 0 0 0 0 0 0 0 0 0 0 0 0 0 0 0 0 0 0 0 0 0 0 0 0 0 0 0 0 0 0 0 0 0 0 0
0 0 0 0 0 0 0 0 0 0 0 0 0 0 0 0 0 0 0 0 0 0 0 0 0 0 0 0 0 0 0 0 0 0 0 0 0 0 0 0 0 0 0
0 0 0 0 0 0 0 0 0 0 0 0 0 0 0 0 0 0 0 0 0 0 0 0 0 0 0 0 0 0 0 0 0 0 0 0 0 0 0 0 0 0 0
0 0 0 0 0 0 0 0 0 0 0 0 0 0 0 0 0 0 0 0 0 0 0 0 0 0 0 0 0 0 0 0 0 0 0 0 0 0 0 0 0 0 0
0 0 0 0 0 0 0 0 0 0 0 0 0 0 0 0 0 0 0 0 0 0 0 0 0 0 0 0 0 0 0 0 0 0 0 0 0 0 0 0 0 0 0
0 0 0 0 0 0 0 0 0 0 0 0 0 0 0 0 0 0 0 0 0 0 0 0 0 0 0 0 0 0 0 0 0 0 0 0 0 0 0 0 0 0 0
0 0 0 0 0 0 0 0 0 0 0 0 0 0 0 0 0 0 0 0 0 0 0 0 0 0 0 0 0 0 0 0 0 0 0 0 0 0 0 0 0 0 0
0 0 0 0 0 0 0 0 0 0 0 0 0 0 0 0 0 0 0 0 0 0 0 0 0 0 0 0 0 0 0 0 0 0 0 0 0 0 0 0 0 0 0
0 0 0 0 0 0 0 0 0 0 0 0 0 0 0 0 0 0 0 0 0 0 0 0 0 0 0 0 0 0 0 0 0 0 0 0 0 0 0 0 0 0 0
0 0 0 0 0 0 0 0 0 0 0 0 0 0 0 0 0 0 0 0 0 0 0 0 0 0 0 0 0 0 0 0 0 0 0 0 0 0 0 0 0 0 0
0 0 0 0 0 0 0 0 0 0 0 0 0 0 0 0 0 0 0 0 0 0 0 0 0 0 0 0 0 0 0 0 0 0 0 0 0 0 0 0 0 0 0
0 0 0 0 0 0 0 0 0 0 0 0 0 0 0 0 0 0 0 0 0 0 0 0 0 0 0 0 0 0 0 0 0 0 0 0 0 0 0 0 0 0 0
0 0 0 0 0 0 0 0 0 0 0 0 0 0 0 0 0 0 0 0 0 0 0 0 0 0 0 0 0 0 0 0 0 0 0 0 0 0 0 0 0 0 0
0 0 0 0 0 0 0 0 0 0 0 0 0 0 0 0 0 0 0 0 0 0 0 0 0 0 0 0 0 0 0 0 0 0 0 0 0 0 0 0 0 0 0
0 0 0 0 0 0 0 0 0 0 0 0 0 0 0 0 0 0 0 0 0 0 0 0 0 0 0 0 0 0 0 0 0 0 0 0 0 0 0 0 0 0 0
0 0 0 0 0 0 0 0 0 0 0 0 0 0 0 0 0 0 0 0 0 0 0 0 0 0 0 0 0 0 0 0 0 0 0 0 0 0 0 0 0 0 0
0 0 0 0 0 0 0 0 0 0 0 0 0 0 0 0 0 0 0 0 0 0 0 0 0 0 0 0 0 0 0 0 0 0 0 0 0 0 0 0 0 0 0
0 0 0 0 0 0 0 0 0 0 0 0 0 0 0 0 0 0 0 0 0 0 0 0 0 0 0 0 0 0 0 0 0 0 0 0 0 0 0 0 0 0 0
0 0 0 0 0 0 0 0 0 0 0 0 0 0 0 0 0 0 0 0 0 0 0 0 0 0 0 0 0 0 0 0 0 0 0 0 0 0 0 0 0 0 0
0 0 0 0 0 0 0 0 0 0 0 0 0 0 0 0 0 0 0 0 0 0 0 0 0 0 0 0 0 0 0 0 0 0 0 0 0 0 0 0 0 0 0
0 0 0 0 0 0 0 0 0 0 0 0 0 0 0 0 0 0 0 0 0 0 0 0 0 0 0 0 0 0 0 0 0 0 0 0 0 0 0 0 0 0 0
0 0 0 0 0 0 0 0 0 0 0 0 0 0 0 0 0 0 0 0 0 0 0 0 0 0 0 0 0 0 0 0 0 0 0 0 0 0 0 0 0 0 0
Wind_Speed
2 2 2 2 1 1 2 2 2 2 2 2 3 3 3 4 4 4 4 4 5 5 4 5 6 5 4 4 4 4 4 4 7 6 3 2 3 4 4 3 4 4 5
2 2 2 2 2 2 2 2 2 2 2 2 2 3 3 4 4 5 5 5 5 6 5 5 6 4 6 5 4 5 5 5 6 7 4 3 4 4 4 4 4 4 4
1 2 2 2 2 3 3 2 2 2 2 2 3 3 4 4 4 5 6 6 6 6 6 6 6 6 6 5 5 6 5 5 5 6 5 3 3 2 3 4 4 4 4
2 2 2 3 3 3 3 3 3 2 2 3 3 3 4 4 4 4 5 5 6 6 6 6 6 7 7 6 6 6 5 5 5 5 5 4 3 2 2 3 4 3 4
2 2 3 2 2 2 2 3 2 2 3 3 3 3 3 3 3 4 4 5 6 6 5 6 6 7 8 7 6 5 5 5 5 5 5 4 4 3 3 3 4 4 4
2 3 2 2 2 2 2 2 2 2 2 2 3 3 4 4 6 8 5 4 5 6 6 6 5 6 7 9 9 8 7 7 6 6 5 6 6 5 4 3 3 3 5
2 2 2 2 2 2 2 2 2 2 2 3 3 3 4 6 8 8 8 5 5 5 6 5 5 5 6 6 7 8 8 10 9 7 7 8 6 6 5 5 5 5 6
2 2 2 2 2 2 2 3 3 2 2 3 4 4 4 6 9 9 8 5 4 5 6 6 6 5 5 6 5 5 6 7 8 7 7 7 6 5 6 6 6 5 4
2 2 2 2 2 2 3 3 3 3 3 3 3 4 4 6 9 9 8 3 4 5 5 5 5 5 8 8 6 6 6 6 7 8 9 8 9 8 5 3 3 3 5
3 3 2 2 2 3 3 3 3 3 4 4 4 4 4 5 8 9 8 3 4 4 4 4 5 5 7 8 6 5 7 6 4 5 6 7 6 6 7 6 5 4 3
2 2 2 2 3 3 3 3 3 3 3 4 4 4 4 5 7 8 7 3 3 4 3 3 4 7 8 9 7 6 7 6 4 4 4 4 4 4 4 4 4 5 5
2 2 3 3 2 2 3 3 3 3 3 4 4 4 4 4 5 7 7 6 5 4 4 3 4 7 8 9 7 6 8 5 2 3 3 4 4 4 3 4 5 5 5
2 3 3 3 3 2 2 3 3 3 3 3 3 4 4 3 4 7 7 7 7 4 3 5 6 7 7 5 5 6 4 3 2 3 4 4 3 4 3 3 3 4 4
2 3 3 3 3 3 3 3 3 3 3 3 4 4 4 4 3 3 3 3 4 4 3 3 5 5 4 3 3 3 2 2 3 3 4 3 3 3 3 3 3 3 3
3 3 3 2 3 3 3 3 4 4 4 4 4 4 4 4 5 6 4 3 2 2 2 1 1 1 1 2 2 2 2 2 2 2 3 3 3 3 3 3 2 2 2
2 3 2 2 2 2 3 4 5 5 7 8 7 6 5 7 8 7 6 5 4 3 1 0 1 1 2 2 2 2 2 2 2 3 3 3 3 3 3 3 2 3 3
2 3 2 2 2 3 3 3 4 5 6 7 7 7 7 7 7 7 6 5 3 2 0 0 1 2 2 2 2 2 3 3 2 3 3 3 3 3 3 3 3 3 3
2 3 2 2 2 2 3 3 3 3 4 4 5 7 7 7 7 6 6 3 2 1 0 1 1 2 2 2 2 3 3 3 2 3 3 3 3 3 3 3 3 3 4
2 2 2 2 2 2 2 2 2 2 3 3 3 4 6 6 6 6 5 2 1 1 1 1 2 2 2 2 3 3 3 3 3 3 3 3 2 3 3 3 4 4 4
2 3 3 2 2 2 2 2 2 2 2 3 3 3 3 2 2 3 2 1 1 2 2 2 2 2 2 2 3 2 2 3 3 3 3 3 3 3 3 4 4 4 4
2 2 2 2 2 2 2 2 2 2 2 3 3 3 4 2 2 2 2 2 2 2 2 2 2 2 2 2 2 3 3 3 3 3 3 3 3 3 3 3 4 4 4
2 2 2 2 2 2 2 2 2 2 2 3 3 3 5 2 2 2 3 3 3 3 3 3 3 3 3 3 3 3 3 4 4 3 3 3 3 3 3 3 3 3 3
2 2 2 2 2 2 2 2 2 2 2 3 3 3 2 2 2 3 3 3 3 3 3 2 3 3 3 3 3 4 4 5 4 4 4 4 3 3 3 4 4 4 4
2 2 2 2 2 2 2 2 2 2 2 3 3 3 3 3 3 3 4 4 4 4 3 3 3 5 6 5 4 4 5 5 5 4 5 4 4 4 4 4 4 5 5
2 2 2 2 2 2 2 2 2 2 2 2 3 3 3 3 3 4 4 4 4 4 5 4 4 5 6 7 7 6 7 8 7 4 4 4 5 5 5 5 4 4 4
2 2 2 2 2 2 2 2 3 3 3 3 3 3 3 3 4 4 4 4 4 4 5 5 5 6 7 7 8 9 8 8 7 6 4 4 4 4 4 4 5 4 4
Wind_Direction
210 208 204 215 212 205 225 235 231 234 227 225 232 238 240 234 227 226 231 229 234 242 239 234 237 227 225 222 220 224 226 223 248 267 253 256 254 267 283 273 274 271 276
225 216 207 211 201 209 233 241 233 228 227 230 232 238 243 240 231 229 233 231 233 238 239 238 240 232 232 228 224 227 229 225 235 260 269 259 253 261 271 273 278 274 272
219 214 211 214 214 224 235 238 229 223 226 228 230 240 246 246 240 236 234 235 236 238 238 237 239 231 235 234 231 233 232 232 233 247 262 260 261 263 277 278 275 273 271
227 217 228 236 234 230 231 234 231 225 228 235 242 247 250 251 247 244 242 241 238 239 239 238 238 233 234 234 234 234 232 231 233 245 256 262 260 257 252 269 283 272 275
228 236 248 256 256 252 245 243 239 235 238 241 249 259 261 256 251 247 247 248 243 243 243 241 241 240 240 239 239 233 226 230 236 241 250 256 252 251 251 247 266 283 277
233 251 268 269 267 264 260 253 249 252 256 255 252 258 262 260 267 263 259 250 250 246 247 247 247 242 242 246 247 244 234 231 235 237 242 248 249 246 252 252 267 282 281
254 276 286 279 279 282 277 266 256 259 264 265 267 267 269 270 272 270 266 258 253 252 248 246 248 248 240 242 247 251 249 247 242 240 245 248 251 243 244 250 247 252 259
277 288 297 301 295 300 295 282 279 274 262 266 269 267 273 277 278 275 273 261 255 255 248 242 242 247 241 243 246 250 251 250 247 244 246 251 249 246 233 242 247 259 270
283 288 295 298 296 297 289 287 293 288 282 280 282 275 275 283 281 278 276 263 257 259 257 251 246 249 252 248 248 253 259 261 262 257 259 263 262 257 248 246 254 255 266
282 289 297 295 286 284 285 292 295 287 285 287 286 282 278 285 289 288 280 264 261 264 262 256 250 257 263 254 244 243 254 262 265 269 267 270 264 253 242 232 229 238 258
308 310 306 294 283 282 286 292 292 291 291 288 289 290 285 283 289 290 285 270 260 265 264 263 260 262 266 263 258 252 257 267 262 258 262 264 260 250 242 236 230 228 236
324 314 306 302 298 299 294 298 297 288 286 286 289 293 292 292 292 293 290 284 279 266 264 265 266 268 269 269 266 262 267 271 266 260 263 263 263 263 261 253 246 242 239
324 310 308 310 307 306 298 297 299 290 280 282 283 287 294 294 292 292 290 289 285 281 274 274 278 278 279 276 274 278 275 256 251 258 263 266 269 272 273 270 266 256 258
308 307 310 312 315 319 309 294 286 281 281 283 284 285 289 291 289 290 288 290 287 281 284 289 286 285 293 310 311 297 279 260 254 258 265 271 275 272 267 264 265 268 267
314 308 309 309 307 307 301 287 282 272 270 278 276 280 285 285 285 292 295 288 284 275 297 319 331 326 305 305 309 305 299 291 278 274 274 277 274 269 269 266 252 246 243
317 310 305 302 299 295 299 307 302 295 298 295 292 290 286 290 297 294 295 300 302 300 332 299 286 287 281 281 286 292 287 278 279 275 269 269 272 272 274 268 248 241 249
294 293 291 289 288 290 293 299 311 323 319 313 309 305 307 307 308 309 304 303 311 326 60 248 265 271 276 279 278 279 282 284 278 270 269 269 270 273 274 275 265 259 259
299 287 277 275 276 279 283 288 292 301 311 315 316 314 320 325 328 327 327 338 333 341 275 242 259 268 275 277 277 281 287 293 289 281 274 271 267 267 271 271 264 258 260
300 292 289 283 279 276 281 283 280 281 285 296 313 318 326 327 337 345 359 14 315 296 290 271 267 272 276 278 278 278 277 281 284 284 284 286 284 280 276 275 269 264 258
305 300 301 292 288 287 284 278 278 280 285 292 298 304 319 341 348 343 351 342 312 292 286 278 273 266 268 273 277 278 277 276 279 278 279 278 278 277 280 283 277 268 262
309 311 311 305 289 282 278 271 270 272 278 285 289 299 312 316 306 304 302 302 294 287 282 278 276 273 269 267 270 274 275 276 272 269 269 272 274 277 275 275 279 276 274
308 308 304 289 288 288 284 279 277 277 282 286 296 309 317 324 306 300 298 295 292 285 276 271 273 272 268 264 263 267 270 271 272 271 270 271 269 269 272 273 276 276 273
305 305 303 299 292 293 294 287 280 278 281 283 291 299 304 298 293 292 292 296 297 294 289 281 278 281 279 271 261 258 260 262 263 263 263 265 264 261 262 267 271 275 272
312 304 299 301 301 297 293 292 286 280 280 285 289 291 293 292 290 287 287 289 293 295 290 282 276 277 282 281 273 264 261 263 261 255 248 253 259 260 257 259 260 262 266
312 309 301 292 291 291 293 293 288 284 284 286 288 291 293 293 293 292 290 289 292 292 291 286 279 279 279 279 278 275 273 273 267 255 244 245 251 255 255 255 258 262 263
308 307 305 303 297 293 290 291 293 295 290 288 287 286 287 289 290 292 294 294 294 291 291 288 283 283 283 281 279 281 278 275 269 255 240 241 246 253 254 258 257 258 254